Weather in Kipelovo

Russia / Vologda Oblast     59°14′11″N   39°08′28″E
В апреле 2022 года жителям России запретили посещать сайт meteo.paraplan.net по решению Генеральной прокуратуры. Аудитория сайта уменьшилась в 10 раз. Владельцы сайта не видят смысла в поддержке погодного сервера в таких условиях. Сайт будет закрыт в октябре.
temp.,
°C
wind,
m/s
gust,
m/s
humid.,
%
clouds,
%
prec.,
mm/h
press.,
hPa
HPBL,
m
25 september, sun
sun2500:00+8ne51297100 0.6 1002573
03:00+9se489283 1.1 1003611
06:00+7e2794100 0.0 1004259
09:00+8e3893100 0.1 1006440
12:00+10ese477878 0.0 1007822
15:00+11ese3669100 0.1 1007868
18:00+9ne1180100 0.0 100720
21:00+9ne2386100 0.1 100881
26 september, mon
mon2600:00+8ne3694100 0.2 1007207
03:00+6n3696100 0.2 1006188
06:00+7n31096100 1.1 1005495
09:00+7n4797100 5.7 1005546
12:00+7ene3594100 1.1 1006419
15:00+6ene3494100 1.1 1008629
18:00+5ne3694100 0.1 1009548
21:00+5ne3797100 0.3 1010511
27 september, tue
tue2700:00+6ene3898100 0.1 1010509
03:00+6ene3898100 0.1 1011516
06:00+7e4897100 0.1 1012549
09:00+7e4995100 0.4 1013674
12:00+9ese4887100 0.6 1014763
15:00+9ese478791 1.3 1014761
18:00+8se379353 0.1 1016310
21:00+6e3109717 0.2 1017309
28 september, wed
wed2800:00+6e4109865 0.1 1017390
03:00+5e4997100 0.1 1018384
06:00+5e4993100 0.0 1018583
09:00+5e51191100 0.1 1017737
12:00+8e61179100 0.0 1016867
15:00+8e61270100 0.0 1015979
18:00+6e71468100 0.0 1014959
21:00+5e71576100 0.4 1014913
29 september, thu
thu2900:00+4e71587100 1.0 1013853
03:00+3e61492100 2.0 1013811
06:00+3e61594100 1.2 1012800
09:00+3e61494100 2.3 1013758
12:00+2e61393100 0.4 1014700
15:00+2ese51194100 0.5 1015587
18:00+3ese41095100 0.1 1017490
21:00+3ese4996100 0.3 1019427